Carson City, NV

5:00 AM PDT on August 26, 2016 (GMT -0700)
Carson

Weather History for KCXP - March, 2013

Change the Weather History Date:

Sunday, March 3, 2013

  Actual Average Record
Temperature  
Mean Temperature 44 °F -  
Max Temperature 50 °F 51 °F 66 °F (2016)
Min Temperature 35 °F 27 °F 19 °F (2012)
Degree Days  
Heating Degree Days 22    
Moisture  
Dew Point 36 °F    
Average Humidity 75    
Maximum Humidity 93    
Minimum Humidity 43    
Precipitation  
Precipitation 0.00 in - - ()
Sea Level Pressure  
Sea Level Pressure 30.07 in    
Wind  
Wind Speed 5 mph (NNE)    
Max Wind Speed 12 mph    
Max Gust Speed -    
Visibility 10 miles    
Events Rain    
Averages and records for this station are not official NWS values.
T = Trace of Precipitation, MM = Missing Value Source: NWS Daily Summary

Daily Weather History Graph

Daily Weather History Graph

Search for Another Location

Airport or City:

Trip Planner

Search our weather history database for the weather conditions in past years. The results will help you decide how hot, cold, wet, or windy it might be!

Date:

Astronomy

Mar. 03, 2013 Rise Set
Actual Time 6:28 AM PST 5:53 PM PST
Civil Twilight 6:01 AM PST 6:20 PM PST
Nautical Twilight 5:30 AM PST 6:51 PM PST
Astronomical Twilight 4:59 AM PST 7:22 PM PST
Moon No Moon Rise 9:50 AM PST (3/3)
Length of Visible Light 12h 19m
Length of Day
11h 25m
Waning Gibbous, 62% of the Moon is Illuminated
Mar 3
Waning Gibbous
Mar 4
Last Quarter
Mar 11
New
Mar 19
First Quarter
Mar 27
Full

Hourly Weather History & Observations

Time (PST) Temp. Windchill Dew Point Humidity Pressure Visibility Wind Dir Wind Speed Gust Speed Precip Events Conditions
12:15 AM 50.0 °F - 28.4 °F 43% 30.11 in 10.0 mi West 6.9 mph - N/A   Mostly Cloudy
12:35 AM 50.0 °F - 30.2 °F 47% 30.11 in 10.0 mi West 8.1 mph - N/A   Mostly Cloudy
12:55 AM 50.0 °F - 28.4 °F 43% 30.11 in 10.0 mi West 8.1 mph - N/A   Overcast
1:15 AM 48.2 °F - 33.8 °F 58% 30.12 in 10.0 mi West 10.4 mph - N/A Rain Light Rain
1:35 AM 48.2 °F - 33.8 °F 58% 30.11 in 10.0 mi West 11.5 mph - N/A   Overcast
1:55 AM 48.2 °F - 32.0 °F 54% 30.11 in 10.0 mi WSW 6.9 mph - N/A   Overcast
2:15 AM 46.4 °F 44.3 °F 32.0 °F 57% 30.11 in 10.0 mi South 4.6 mph - N/A   Overcast
2:35 AM 48.2 °F - 32.0 °F 54% 30.09 in 10.0 mi WNW 6.9 mph - N/A   Overcast
2:55 AM 46.4 °F 42.9 °F 33.8 °F 62% 30.09 in 10.0 mi NNW 6.9 mph - N/A   Overcast
3:15 AM 46.4 °F 45.2 °F 35.6 °F 66% 30.08 in 10.0 mi NW 3.5 mph - N/A Rain Light Rain
3:35 AM 46.4 °F 44.3 °F 35.6 °F 66% 30.07 in 10.0 mi NNE 4.6 mph - N/A   Overcast
4:15 AM 46.4 °F - 33.8 °F 62% 30.07 in 10.0 mi Calm Calm - N/A   Overcast
4:35 AM 46.4 °F 42.4 °F 33.8 °F 62% 30.06 in 10.0 mi WNW 8.1 mph - N/A   Overcast
4:55 AM 46.4 °F - 33.8 °F 62% 30.06 in 10.0 mi Calm Calm - N/A   Overcast
5:15 AM 46.4 °F - 33.8 °F 62% 30.06 in 10.0 mi Calm Calm - N/A   Overcast
5:35 AM 46.4 °F - 32.0 °F 57% 30.07 in 10.0 mi Calm Calm - N/A   Overcast
5:55 AM 46.4 °F 41.9 °F 33.8 °F 62% 30.07 in 10.0 mi NNW 9.2 mph - N/A   Overcast
6:15 AM 44.6 °F 40.2 °F 35.6 °F 71% 30.06 in 10.0 mi NW 8.1 mph - N/A   Overcast
6:35 AM 46.4 °F 41.1 °F 35.6 °F 66% 30.07 in 10.0 mi NW 11.5 mph - N/A   Overcast
6:55 AM 44.6 °F 40.2 °F 35.6 °F 71% 30.07 in 10.0 mi North 8.1 mph - N/A   Overcast
7:15 AM 44.6 °F 40.7 °F 35.6 °F 71% 30.07 in 10.0 mi NW 6.9 mph - N/A Rain Light Rain
7:35 AM 44.6 °F 42.2 °F 35.6 °F 71% 30.08 in 10.0 mi NW 4.6 mph - N/A Rain Light Rain
7:55 AM 42.8 °F - 35.6 °F 76% 30.08 in 9.0 mi Calm Calm - N/A Rain Light Rain
8:15 AM 44.6 °F - 37.4 °F 76% 30.07 in 10.0 mi Calm Calm - N/A Rain Light Rain
8:35 AM 44.6 °F 41.4 °F 37.4 °F 76% 30.07 in 7.0 mi NNW 5.8 mph - N/A Rain Light Rain
8:55 AM 44.6 °F 41.4 °F 35.6 °F 71% 30.07 in 9.0 mi North 5.8 mph - N/A Rain Light Rain
9:15 AM 44.6 °F 42.2 °F 37.4 °F 76% 30.08 in 8.0 mi North 4.6 mph - N/A Rain Light Rain
9:35 AM 44.6 °F 41.4 °F 39.2 °F 81% 30.07 in 10.0 mi East 5.8 mph - N/A Rain Light Rain
9:55 AM 44.6 °F 43.1 °F 39.2 °F 81% 30.07 in 10.0 mi East 3.5 mph - N/A   Clear
10:15 AM 44.6 °F 40.2 °F 39.2 °F 81% 30.07 in 10.0 mi East 8.1 mph - N/A   Scattered Clouds
10:35 AM 44.6 °F 40.2 °F 39.2 °F 81% 30.07 in 9.0 mi ENE 8.1 mph - N/A Rain Light Rain
10:55 AM 44.6 °F 41.4 °F 39.2 °F 81% 30.07 in 7.0 mi NE 5.8 mph - N/A Rain Light Rain
11:15 AM 44.6 °F 40.7 °F 39.2 °F 81% 30.07 in 6.0 mi ENE 6.9 mph - N/A Rain Light Rain
11:35 AM 44.6 °F 41.4 °F 39.2 °F 81% 30.07 in 8.0 mi ENE 5.8 mph - N/A Rain Light Rain
11:55 AM 44.6 °F 40.7 °F 39.2 °F 81% 30.07 in 10.0 mi ENE 6.9 mph - N/A Rain Light Rain
12:15 PM 42.8 °F 37.0 °F 39.2 °F 87% 30.06 in 10.0 mi ENE 10.4 mph - N/A Rain Light Rain
12:35 PM 42.8 °F 37.5 °F 39.2 °F 87% 30.06 in 10.0 mi East 9.2 mph - N/A Rain Light Rain
12:55 PM 42.8 °F 38.0 °F 39.2 °F 87% 30.06 in 10.0 mi East 8.1 mph - N/A Rain Light Rain
1:35 PM 42.8 °F 38.0 °F 39.2 °F 87% 30.05 in 10.0 mi East 8.1 mph - N/A Rain Light Rain
1:55 PM 42.8 °F 38.6 °F 39.2 °F 87% 30.05 in 7.0 mi East 6.9 mph - N/A Rain Light Rain
2:15 PM 42.8 °F 38.6 °F 39.2 °F 87% 30.05 in 10.0 mi East 6.9 mph - N/A Rain Light Rain
2:35 PM 44.6 °F 41.4 °F 39.2 °F 81% 30.05 in 10.0 mi East 5.8 mph - N/A   Overcast
2:55 PM 44.6 °F 41.4 °F 39.2 °F 81% 30.05 in 10.0 mi East 5.8 mph - N/A   Overcast
3:15 PM 46.4 °F 42.9 °F 41.0 °F 81% 30.04 in 10.0 mi East 6.9 mph - N/A   Overcast
3:35 PM 46.4 °F 43.5 °F 39.2 °F 76% 30.04 in 10.0 mi East 5.8 mph - N/A   Mostly Cloudy
3:55 PM 46.4 °F - 37.4 °F 71% 30.04 in 10.0 mi Calm Calm - N/A   Mostly Cloudy
4:35 PM 44.6 °F 43.1 °F 37.4 °F 76% 30.03 in 10.0 mi NE 3.5 mph - N/A   Partly Cloudy
4:55 PM 44.6 °F - 37.4 °F 76% 30.04 in 10.0 mi Calm Calm - N/A   Clear
5:15 PM 44.6 °F - 37.4 °F 76% 30.04 in 10.0 mi Calm Calm - N/A   Clear
5:35 PM 44.6 °F - 37.4 °F 76% 30.04 in 10.0 mi Calm Calm - N/A   Partly Cloudy
5:55 PM 42.8 °F - 37.4 °F 81% 30.04 in 10.0 mi Calm Calm - N/A   Mostly Cloudy
6:15 PM 41.0 °F - 37.4 °F 87% 30.04 in 10.0 mi Calm Calm - N/A   Partly Cloudy
6:35 PM 41.0 °F - 37.4 °F 87% 30.04 in 10.0 mi Calm Calm - N/A   Mostly Cloudy
6:55 PM 42.8 °F 41.1 °F 37.4 °F 81% 30.05 in 10.0 mi WNW 3.5 mph - N/A   Overcast
7:15 PM 41.0 °F - 37.4 °F 87% 30.05 in 10.0 mi Calm Calm - N/A   Overcast
7:35 PM 41.0 °F - 37.4 °F 87% 30.05 in 10.0 mi Calm Calm - N/A   Overcast
7:55 PM 41.0 °F - 37.4 °F 87% 30.05 in 10.0 mi Calm Calm - N/A   Overcast
8:15 PM 41.0 °F - 37.4 °F 87% 30.05 in 10.0 mi Calm Calm - N/A   Mostly Cloudy
8:35 PM 41.0 °F - 37.4 °F 87% 30.06 in 10.0 mi Calm Calm - N/A   Overcast
8:55 PM 41.0 °F - 37.4 °F 87% 30.06 in 10.0 mi Calm Calm - N/A   Overcast
9:15 PM 41.0 °F - 37.4 °F 87% 30.06 in 10.0 mi Calm Calm - N/A   Overcast
9:35 PM 41.0 °F - 37.4 °F 87% 30.07 in 10.0 mi Calm Calm - N/A   Overcast
9:55 PM 41.0 °F - 37.4 °F 87% 30.07 in 10.0 mi Calm Calm - N/A   Overcast
10:15 PM 41.0 °F - 37.4 °F 87% 30.07 in 10.0 mi Calm Calm - N/A   Overcast
10:35 PM 39.2 °F - 35.6 °F 87% 30.07 in 10.0 mi Calm Calm - N/A   Scattered Clouds
10:55 PM 37.4 °F - 35.6 °F 93% 30.07 in 10.0 mi Calm Calm - N/A   Clear
11:15 PM 37.4 °F 33.8 °F 35.6 °F 93% 30.07 in 10.0 mi NW 4.6 mph - N/A   Partly Cloudy
11:55 PM 35.6 °F - 32.0 °F 87% 30.08 in 10.0 mi Calm Calm - N/A   Overcast